Tracking 25734 objects as of 27-May-2022
HD Live streaming from Space Station
objects crossing your sky now

SL-18 DEB

Track SL-18 DEB now!
10-day predictions


NORAD ID: 28283
Int'l Code: 1993-014L
Perigee: 483.4 km
Apogee: 538.0 km
Inclination: 75.7 °
Period: 94.7 minutes
Semi major axis: 6881 km
RCS: 0.0138 m2 (small)
Launch date: March 25, 1993
Source: Commonwealth of Independent States (former USSR) (CIS)
Launch site: PLESETSK MISSILE AND SPACE COMPLEX (PKMTR)

Note: This is SATELLITE DEBRIS
aabbcc
Your satellite tracking list
Your tracking list is empty




NASA's NSSDC Master Catalog

Two Line Element Set (TLE):
1 28283U 93014L   22146.58826658  .00098869  00000-0  43401-2 0  9997
2 28283  75.7364 237.1960 0039645   2.4455 357.6938 15.20764602480176
Source of the keplerian elements: AFSPC